Portada
METAR-TAF:

METAR-TAF

Aeroports :

Cloquet/Carlton County Airport

Cloquet, Minnesota, Estats Units d'Amèrica

latitud: 46-42N, longitud: 092-30W, altitud: 390 m

Observació

L'informe es va fer fa 24 minuts, a les 03:55 UTC
Vent 3 kt del Est
Temperatura 16°C
Humitat 88%
Pressió 1021 hPa
Visibilitat: 16.1 km
Cel clar

METAR: KCOQ 180355Z AUTO 08003KT 10SM CLR 16/14 A3014 RMK AO2

Hora: 23:19 (04:19 UTC)


TAF: manca

Observacions i pronòstics meteorològics de més de 4000 aeroports (METAR i TAF).

Les estacions disponibles són els punts grocs i vermells al mapa.

Posi el ratolí al punt desitjat per veure el nom de l'estació.

Feu clic per veure les observacions i els pronòstics meteorològics.

Per canviar el mapa: feu clic els botons verds amb una creu de color negre per apropar; al botó verd amb un guió per allunyar la imatge; o en les fletxes verdes per a mapes adjacents.


METAR-TAF: